Location: Newark
(35.2672°N, 80.7344°W)
Time: 14:22:36
(UTC+00:00)

A-11 Canister half - Pass Details

Date: 26 January 2020
Orbit: 1524 x 1684 km, 47.3° (Epoch: 28 February)

Event Time Altitude Azimuth Distance (km) Brightness Sun altitude
Rises 00:11:14 0° 265° (W) 4,674 13.3 -17.9°
Reaches altitude 10° 00:14:27 10° 271° (W) 3,702 12.2 -18.6°
Maximum altitude 00:23:22 47° 343° (NNW) 1,972 9.6 -20.4°
Enters shadow 00:29:17 23° 45° (NE) 2,890 10.0 -21.6°
